Showing default

GALAXY 11, 26038

Orbit data source: Space-Track

GALAXY 11, 26038 is a payload satellite owned by Panamsat (US) in GEO that was launched on Wed, 22 Dec 1999 UTC via an ARIANE 44L launch vehicle from the French Guiana (FRGUI). Payload-class satellites include a variety of spacecraft equipped with specific instruments for various scientific and technological missions. These include communications satellites like Starlink; space stations such as the ISS; scientific satellites like the Hubble; Earth observation satellites from companies like Planet Labs, Umbra, and HawkEye 360; GPS; miniature CubeSats for education and research; and military/defense satellites.

Loading next visibility...
Identifier
26038, 1999-071A
Orbit
GEO
Country
Flag of USUS
Related business
Manufacturer
Hughes
Mission
Non-operational Commercial Communications
Bus & Motor
HS-702, R-4D-11-300
Mass
4,484 kg wet, ~4,400 kg dry
Launch date (UTC)
1999-12-22 (26 years ago)
Launch vehicle
ARIANE 44L
Launch site
French Guiana (FRGUI)
Object type
Payload
Rocket body
Debris
Shape & HBR
Box + 2 Pan, 17.0 m
Radar Cross Section
53.041 m², Large (>1 m²)

Expand to show TLE details & history
Last TLE update: 1 day ago

TLE from 1 day ago
0 GALAXY 11
1 26038U 99071A   25261.16364593  .00000024  00000-0  00000-0 0  9994
2 26038   6.0488  73.8765 0006000 333.1825 262.3901  0.99020660 94316
Epoch: 2025-09-18T03:55Z
TLE epoch observation values (Epoch: 2025-09-18T03:55:39.008Z)
Latitude
-4.9705°
Longitude
-107.01577°
Altitude
36,144.607 km
Speed
3.062 km/s
True Right ascension
20h 36m 54s
True Declination
-4° 57' 56"
Sunlit
Object was in daylight at epoch
Visualization orbit readout
Latitude
Unknown
Longitude
Unknown
Altitude
Unknown
Speed
Unknown
Apparent Right ascension
Unknown
Apparent Declination
Unknown
Sunlit
N/A
Visualization observer readout
Local Sidereal Time
20:26:29
Azimuth
Unknown
Elevation
Unknown
Doppler factor
Unknown
Orbital elements
Apogee altitude
36,167.575 km
Perigee altitude
36,116.551 km
Semi-major axis
42,520.2 km
Eccentricity
0.0006
Inclination
6.0488°
RAAN
73.8765°
Arg. of periapsis
333.1825°
True anomaly
262.32196°
Mean anomaly
262.3901°
Eccentric anomaly
262.35603°
Mean motion
0.24754 °/min
Orbital period
1,454.29 mins
BSTAR
0
Loading maneuver chart data...
Computing Atmospheric mass density...
Loading historical data...
Loading historical data...
Loading historical data...
Loading historical data...
Loading historical data...
Loading historical data...
Loading historical data...
Other satellites on launch #71 in the year 1999 (1999-12-22 UTC)

Documentation

Showing up to 5 results
|